SCP
0 -0 0 0 0 0 0 0 0 0 0 0 0 0 0 0 0 0 0 0 0 0 0 0 0 -0 -0 -0 -0 -0 0 -0 -0 -0 -0 -0 -0 -0 -0 -0 -0 -0 -0 -0 -0 -0 -0 -0 -0
0 0 0 0 0 0 0 0 0 0 0 0 0 0 0 0 0 0 0 0 0 0 0 0 0 -0 -0 -0 -0 -0 -0 0 0 0 0 0 -0 -0 -0 -0 -0 -0 -0 -0 -0 0 0 -0 -0
-0 0 0 0 0 0 0 0 0 0 0 0 0 0 0 0 0 -0 0 0 0 0 0 0 0 -0 -0 -0 -0 -0 -0 0 0 0 0 0 -0 -0 -0 -0 -0 -0 -0 -0 -0 0 -0 -0 -0
0 0 0 0 0 0 0 0 0 0 0 0 0 0 0 0 -0 -0 0 0 0 0 0 0 -0 -0 -0 -0 -0 -0 0 0 0 0 0 0 -0 -0 -0 -0 -0 -0 -0 -0 -0 -0 0 0 -0
0 0 0 0 0 0 0 0 0 0 0 0 0 0 0 0 0 0 0 0 0 0 0 0 0 -0 -0 -0 -0 -0 -0 -0 0 0 0 0 -0 -0 0 0 -0 -0 -0 -0 -0 -0 -0 -0 -0
0 0 0 0 0 0 0 0 0 0 0 0 0 0 0 0 0 0 0 0 0 0 0 0 0 0 0 -0 -0 -0 -0 -0 0 0 0 -0 0 -0 -0 -0 0 0 -0 -0 -0 -0 -0 -0 -0
0 0 0 0 0 0 0 0 0 0 0 0 0 0 0 0 0 0 0 0 0 0 0 0 0 0 0 0 0 -0 -0 -0 0 0 0 -0 0 -0 -0 -0 -0 0 0 0 0 0 0 -0 -0
0 0 0 0 0 0 0 0 0 0 0 0 0 0 0 0 0 0 0 0 0 0 0 0 0 0 0 0 0 0 -0 0 0 0 0 0 0 0 0 -0 -0 -0 0 0 0 0 0 0 0
0 0 0 0 0 0 0 0 0 0 0 0 0 0 0 0 0 0 0 0 0 0 0 0 0 0 0 0 0 0 0 0 0 0 0 0 0 0 0 0 0 0 0 0 0 0 0 -0 0
0 0 0 0 0 0 0 0 0 0 0 0 0 0 0 0 0 0 0 0 0 0 0 0 0 0 0 0 0 0 0 0 0 0 0 0 0 0 0 0 -0 -0 0 0 0 0 -0 0 -0
0 0 0 0 0 0 0 0 0 0 0 0 0 0 0 0 0 0 0 0 0 0 0 0 0 0 0 0 0 0 0 0 0 0 0 0 0 0 0 0 0 0 0 0 0 0 0 0 0
0 0 0 0 0 0 0 0 0 0 0 0 0 0 0 0 0 0 0 0 0 0 0 0 0 0 0 0 0 0 0 0 0 0 0 0 0 0 0 0 0 0 0 0 0 0 0 0 0
0 0 0 0 0 0 0 0 0 0 0 0 0 0 0 0 0 0 0 0 0 0 0 0 0 0 0 0 0 0 0 0 0 0 0 0 0 0 0 0 0 0 0 0 0 0 0 0 0
0 0 0 0 0 0 0 0 0 0 0 0 0 0 0 0 0 0 0 0 0 0 0 0 0 0 0 0 0 0 0 0 0 0 0 0 0 0 0 0 0 0 0 0 0 0 0 0 0
0 0 0 0 0 0 0 0 0 0 0 0 0 0 0 0 0 0 0 0 0 0 0 0 0 0 0 0 0 0 0 0 0 0 0 0 0 0 0 0 0 0 0 0 0 0 0 0 0
0 0 0 0 0 0 0 0 0 0 0 0 0 0 0 0 0 0 0 0 0 0 0 0 0 0 0 0 0 0 0 0 0 0 0 0 0 0 0 0 0 0 0 0 0 0 0 0 0
0 0 0 0 0 0 0 0 0 0 0 0 0 0 0 0 0 0 0 0 0 0 0 0 0 0 0 0 0 0 0 0 0 0 0 0 0 0 0 0 0 0 0 0 0 0 0 0 0
0 0 0 0 0 0 0 0 0 0 0 0 0 0 0 0 0 0 0 0 0 0 0 0 0 0 0 0 0 0 0 0 0 0 0 0 0 0 0 0 0 0 0 0 0 0 0 0 0
0 0 0 0 0 0 0 0 0 0 0 0 0 0 0 0 0 0 0 0 0 0 0 0 0 0 0 0 0 0 0 0 0 0 0 0 0 0 0 0 0 0 0 0 0 0 0 0 0
0 0 0 0 0 0 0 0 0 0 0 0 0 0 0 0 0 0 0 0 0 0 0 0 0 0 0 0 0 0 0 0 0 0 0 0 0 0 0 0 0 0 0 0 0 0 0 0 0
0 0 0 0 0 0 0 0 0 0 0 0 0 0 0 0 0 0 0 0 0 0 0 0 0 0 0 0 0 0 0 0 0 0 0 0 0 0 0 0 0 0 0 0 0 0 0 0 0
0 0 0 0 0 0 0 0 0 0 0 0 0 0 0 0 0 0 0 0 0 0 0 0 0 0 0 0 0 0 0 0 0 0 0 0 0 0 0 0 0 0 0 0 0 0 0 0 0
0 0 0 0 0 0 0 0 0 0 0 0 0 0 0 0 0 0 0 0 0 0 0 0 0 0 0 0 0 0 0 0 0 0 0 0 0 0 0 0 0 0 0 0 0 0 0 0 0
0 0 0 0 0 0 0 0 0 0 0 0 0 0 0 0 0 0 0 0 0 0 0 0 0 0 0 0 0 0 0 0 0 0 0 0 0 0 0 0 0 0 0 0 0 0 0 0 0
0 0 0 0 0 0 0 0 0 0 0 0 0 0 0 0 0 0 0 0 0 0 0 0 0 0 0 0 0 0 0 0 0 0 0 0 0 0 0 0 0 0 0 0 0 0 0 0 0
0 0 0 0 0 0 0 0 0 0 0 0 0 0 0 0 0 0 0 0 0 0 0 0 0 0 0 0 0 0 0 0 0 0 0 0 0 0 0 0 0 0 0 0 0 0 0 0 0
0 0 0 0 0 0 0 0 0 0 0 0 0 0 0 0 0 0 0 0 0 0 0 0 0 0 0 0 0 0 0 0 0 0 0 0 0 0 0 0 0 0 0 0 0 0 0 0 0
0 0 0 0 0 0 0 0 0 0 0 0 0 0 0 0 0 0 0 0 0 0 0 0 0 0 0 0 0 0 0 0 0 0 0 0 0 0 0 0 0 0 0 0 0 0 0 0 0
0 0 0 0 0 0 0 0 0 0 0 0 0 0 0 0 0 0 0 0 0 0 0 0 0 0 0 0 0 0 0 0 0 0 0 0 0 0 0 0 0 0 0 0 0 0 0 0 0
0 0 0 0 0 0 0 0 0 0 0 0 0 0 0 0 0 0 0 0 0 0 0 0 0 0 0 0 0 0 0 0 0 0 0 0 0 0 0 0 0 0 0 0 0 0 0 0 0
Wind_Speed_500mb
40 24 11 1 4 6 5 8 3 5 5 7 26 11 15 8 8 4 14 47 52 51 49 48 45 41 35 30 31 37 32 33 33 25 31 32 29 26 24 20 14 14 26 24 20 20 21 19 19
40 21 5 2 6 2 6 5 8 7 7 22 20 12 7 5 7 4 35 44 56 51 50 49 48 41 37 32 32 34 33 34 34 29 22 22 21 19 17 17 14 18 23 22 18 20 18 19 20
37 21 6 7 4 6 7 7 7 4 27 14 11 5 7 4 10 18 33 50 56 52 50 51 48 42 38 34 33 35 30 29 30 27 21 16 20 18 22 21 21 21 20 19 17 17 15 16 18
23 6 4 6 8 9 9 4 7 14 11 9 11 7 7 7 8 25 48 53 53 51 50 50 46 42 38 32 32 34 29 26 26 23 21 19 20 22 19 18 21 21 18 16 14 13 12 13 13
21 2 2 3 7 9 8 7 19 9 9 11 14 7 5 11 14 27 51 56 53 52 50 50 46 43 37 32 30 30 26 23 23 23 24 24 24 23 23 17 15 17 15 13 12 11 9 8 8
11 4 2 6 8 8 10 11 18 15 10 13 11 15 8 15 22 36 50 55 50 49 49 49 45 43 38 34 31 28 23 24 20 20 19 19 20 20 16 10 8 9 13 11 9 8 6 4 3
2 4 8 7 7 9 7 10 12 17 14 11 9 11 8 25 28 37 49 52 51 47 47 48 46 43 40 35 32 27 23 22 21 18 18 17 17 17 15 13 10 7 7 11 8 5 3 1 0
3 4 5 8 8 11 7 15 7 22 13 11 16 7 8 35 36 43 48 52 51 48 47 47 48 43 43 38 33 29 23 21 21 20 16 16 15 14 14 12 9 8 6 5 5 6 5 5 6
11 2 7 9 12 10 10 8 9 10 12 19 23 9 7 33 40 48 53 55 57 52 49 47 47 45 43 40 37 30 24 21 25 27 25 18 15 13 12 12 11 9 8 6 7 8 9 10 12
13 9 15 10 9 6 5 12 11 11 14 14 22 23 14 34 46 55 64 65 64 60 53 48 48 46 44 42 39 33 27 22 20 19 21 19 16 12 10 9 9 8 6 4 5 7 9 11 14
11 13 9 10 15 10 5 7 12 14 8 25 40 38 30 40 50 55 63 64 67 61 55 52 47 44 43 41 39 34 29 26 22 17 15 17 15 12 9 8 6 7 6 5 6 9 10 11 12
9 21 17 9 6 5 5 6 6 23 15 5 30 30 37 44 53 57 62 64 63 63 59 52 48 44 42 39 36 32 29 26 24 20 18 18 17 14 11 10 11 10 11 11 12 12 11 12 14
10 9 22 37 37 23 12 11 7 22 27 23 16 31 40 43 50 53 55 58 61 62 61 56 49 46 43 40 37 35 32 28 24 24 22 21 19 17 16 15 15 15 16 15 16 16 16 17 18
6 17 33 26 28 15 13 9 10 15 14 29 21 32 41 43 47 50 57 61 65 60 57 53 51 49 47 44 40 37 33 30 29 29 26 25 23 22 21 20 20 21 19 19 20 20 20 21 23
14 15 13 16 21 12 19 13 16 44 31 21 28 31 39 43 45 48 49 55 60 60 53 52 49 49 51 48 43 40 37 35 35 32 31 30 28 26 26 26 25 23 24 26 27 26 27 26 27
8 10 13 3 23 13 26 22 10 40 34 38 30 32 38 44 46 43 44 49 51 53 52 48 46 45 45 46 46 44 41 40 38 35 34 34 32 32 32 32 29 26 29 30 31 30 31 31 31
8 9 14 7 24 7 14 8 16 25 22 37 37 36 39 42 45 48 45 45 48 50 49 48 47 45 42 40 40 38 42 43 40 38 37 35 34 33 36 35 30 30 34 34 33 33 35 35 35
9 7 4 12 9 8 9 13 7 8 22 34 34 38 41 45 50 47 48 47 45 47 49 48 47 44 42 40 39 38 37 40 44 44 43 40 40 38 38 38 37 36 39 40 40 40 40 41 40
8 6 18 6 10 9 15 13 24 10 10 11 25 31 39 47 44 42 43 46 47 49 51 53 53 50 49 49 47 46 47 41 40 41 44 43 41 42 44 44 42 43 47 43 40 41 43 44 42
8 2 11 7 3 9 3 13 15 11 16 33 25 24 35 35 38 35 38 45 47 46 49 51 54 54 53 51 46 44 41 41 41 38 34 31 30 30 34 36 40 42 42 44 45 46 52 55 48
11 8 7 7 2 1 2 10 8 10 18 35 38 30 23 31 31 29 33 39 41 43 44 43 43 47 49 49 48 47 47 45 42 37 30 28 28 29 34 35 36 37 40 43 42 42 40 42 42
10 17 8 3 3 7 1 9 9 10 15 13 39 42 33 24 26 25 27 32 37 44 42 40 39 37 38 44 49 47 44 43 34 32 32 31 30 30 31 33 36 35 37 40 40 35 34 34 40
11 15 18 5 5 1 2 2 12 2 9 13 23 32 39 31 24 26 27 21 20 30 36 37 43 42 40 41 43 43 45 41 42 42 43 41 40 39 38 38 37 37 39 39 40 38 35 35 35
14 10 12 7 6 5 7 8 9 7 7 2 5 5 20 29 32 30 26 26 24 24 26 29 34 38 40 42 43 47 48 48 50 51 52 51 51 49 49 48 45 41 40 36 36 35 37 32 34
3 13 4 5 7 10 6 7 10 10 5 1 3 6 8 19 23 30 31 27 25 24 23 23 23 24 26 28 32 36 38 41 45 45 44 43 43 43 42 43 43 40 35 33 30 30 33 33 34
12 12 9 12 8 5 3 10 10 3 8 3 17 16 20 23 25 28 29 27 24 20 19 17 17 16 16 17 19 22 24 26 28 30 32 32 32 32 33 35 37 37 34 32 31 35 36 32 34
9 8 7 12 5 6 6 11 17 5 6 7 20 21 25 28 30 33 33 31 30 29 25 21 19 18 15 13 11 9 6 3 6 10 12 14 16 19 22 25 27 28 28 30 33 35 33 34 37
9 13 5 5 7 4 7 8 9 2 5 7 9 24 29 34 39 42 42 42 42 37 38 38 33 29 26 23 20 17 13 9 7 6 8 9 10 12 14 18 20 22 28 31 33 37 37 36 36
3 2 7 8 6 8 5 10 8 3 7 13 13 24 36 42 44 45 44 43 41 39 37 37 34 29 24 21 16 13 10 7 7 8 8 8 9 10 12 16 19 20 23 28 31 32 29 27 27
2 8 8 8 8 1 4 9 2 9 8 22 23 30 38 40 41 41 40 41 39 38 36 33 30 25 23 19 15 11 9 8 8 10 11 10 9 10 12 13 16 19 23 24 24 24 25 25 24
Wind_Direction_500mb
342 339 332 252 48 62 266 259 262 175 169 167 142 155 184 165 173 198 166 168 169 166 164 163 161 160 155 151 143 144 137 136 138 129 133 131 133 137 136 137 135 131 114 117 116 106 106 97 89
339 333 316 107 95 78 264 264 225 214 154 140 139 135 153 183 189 177 155 164 167 167 165 164 162 162 160 156 149 150 149 150 144 142 147 149 151 140 143 137 135 116 118 120 116 105 100 93 82
333 324 276 96 112 197 221 220 226 156 146 143 130 172 165 194 191 162 163 162 166 168 166 165 164 165 164 161 158 154 159 161 168 170 172 166 140 131 133 128 121 109 106 105 105 99 88 78 78
331 307 38 109 231 248 212 252 208 140 195 163 152 138 158 165 165 165 162 166 166 169 168 168 168 168 168 167 165 166 170 169 170 170 171 160 135 123 123 120 116 108 106 103 100 98 95 91 77
319 295 51 136 240 262 250 236 179 181 169 174 170 184 176 182 174 169 166 167 169 169 170 172 170 170 172 170 169 167 168 164 171 173 170 151 144 144 140 134 114 108 111 111 104 94 84 81 79
309 79 75 221 242 252 270 241 176 182 171 163 165 155 172 174 174 170 172 172 171 172 173 176 172 174 174 173 172 170 169 172 172 163 161 153 147 157 162 162 129 115 134 125 115 106 99 90 51
329 90 231 209 246 299 240 160 181 168 162 206 173 147 188 177 169 174 176 177 175 176 176 180 177 178 179 177 178 178 174 172 183 173 170 164 168 165 165 167 164 162 135 136 140 142 146 132 314
274 107 221 231 201 253 184 176 201 178 196 167 179 190 208 188 172 174 177 179 179 181 183 183 185 180 183 182 186 189 185 186 188 190 184 182 180 183 185 187 182 179 179 175 177 196 217 249 273
174 100 241 228 165 241 170 186 196 194 168 180 188 192 200 184 176 174 178 181 185 187 188 188 190 189 187 186 192 196 195 197 206 194 189 185 182 188 195 197 203 205 208 221 231 236 243 254 268
186 160 223 226 199 262 214 180 181 174 172 193 195 204 200 183 185 182 186 186 188 190 190 192 192 194 193 193 198 202 202 204 211 201 184 174 178 183 184 191 200 210 207 212 244 256 261 266 269
210 190 209 274 249 250 258 255 184 169 221 210 208 201 196 185 191 192 193 194 191 193 194 194 194 196 199 201 202 207 209 211 213 212 193 188 197 206 204 202 210 206 216 257 281 286 279 285 290
212 235 196 221 264 232 214 281 216 206 213 237 228 221 203 195 198 199 197 199 198 199 200 198 198 199 202 205 210 214 218 219 219 220 214 216 218 223 229 230 236 244 256 270 280 285 291 291 294
210 226 239 244 247 248 254 245 269 261 248 256 221 210 211 206 204 203 203 204 205 205 202 202 203 204 206 208 212 217 220 224 227 228 228 228 232 236 240 242 247 254 264 274 283 286 287 291 294
281 227 251 253 238 223 204 245 184 261 260 234 224 210 212 212 209 202 205 207 207 205 205 205 208 212 213 215 218 221 225 227 231 233 235 237 239 241 246 250 255 257 267 270 274 278 281 284 288
279 281 292 234 223 233 203 269 218 248 257 245 231 215 215 214 212 215 213 207 206 207 207 209 212 216 220 221 223 226 229 232 236 239 241 243 244 249 254 256 256 260 263 266 271 276 281 283 287
198 165 234 200 167 228 171 252 236 239 234 237 235 226 218 218 219 219 217 214 208 209 211 210 212 214 217 220 225 229 231 236 239 242 243 245 248 251 255 258 259 263 263 266 272 278 282 285 288
249 194 226 319 189 137 189 243 230 243 217 236 236 234 230 225 223 223 221 219 216 214 214 215 217 218 218 220 225 231 232 236 238 239 241 243 249 253 256 258 261 261 264 268 274 278 285 287 289
206 196 242 206 189 174 196 245 225 180 209 231 238 235 234 234 232 228 225 223 223 222 224 224 225 226 225 227 229 231 231 234 238 240 242 243 248 252 257 259 261 262 264 266 270 276 279 283 285
53 342 231 235 212 173 220 214 233 235 267 230 235 238 239 241 242 237 231 229 227 225 225 227 227 228 228 229 230 234 236 241 245 247 250 252 255 256 257 260 261 263 265 269 272 276 280 283 287
291 305 304 285 352 169 214 250 249 228 239 237 231 234 241 243 245 239 236 228 231 233 232 229 230 231 232 234 239 243 249 252 254 253 253 254 256 259 267 270 267 267 268 271 271 274 280 280 278
218 193 241 279 339 0 10 289 230 238 234 244 238 235 237 240 241 234 227 226 231 234 233 233 234 235 234 236 240 242 248 250 251 252 252 258 263 263 267 272 273 272 272 275 275 273 275 279 280
210 186 208 223 163 220 60 273 260 233 241 231 237 226 224 226 223 214 212 220 229 225 225 228 230 232 234 236 238 241 246 252 256 260 259 257 259 263 265 268 269 270 269 270 275 277 274 276 276
211 179 183 152 138 13 267 60 268 318 252 247 238 230 224 219 211 198 201 201 204 213 221 225 226 224 226 229 236 241 246 251 257 259 260 261 262 264 266 267 269 270 270 272 274 275 277 279 276
147 80 47 67 43 307 204 154 276 212 228 39 53 195 227 220 209 197 193 195 191 188 197 210 218 225 231 233 238 242 246 251 255 258 260 263 264 265 264 266 267 267 266 271 276 276 272 277 276
183 119 115 156 201 227 310 188 253 243 244 88 68 84 143 175 182 187 191 188 191 192 194 199 205 210 217 224 231 239 246 250 255 260 263 264 265 265 266 266 265 262 261 264 269 264 275 272 274
187 170 147 171 188 201 331 233 238 177 311 193 110 118 123 131 142 147 152 160 166 172 179 188 196 207 218 231 238 241 248 254 261 265 268 270 268 264 260 257 256 254 252 263 266 261 261 269 270
197 197 152 105 27 76 225 296 298 152 48 115 122 123 117 121 126 129 129 130 128 131 130 128 129 128 126 126 125 128 137 218 253 266 275 276 272 265 258 259 255 250 256 265 269 266 265 271 272
179 155 91 2 117 227 275 283 242 307 129 117 132 129 125 124 123 121 121 119 118 116 114 116 112 107 105 100 95 87 78 65 35 358 339 317 291 275 264 255 251 252 256 262 266 262 266 268 270
109 170 49 115 122 164 150 257 214 297 178 168 154 142 134 128 122 118 116 115 114 113 110 105 102 99 95 94 92 89 87 71 32 1 342 325 302 285 263 252 248 259 262 261 261 262 261 267 263
280 199 153 145 224 137 133 271 20 260 228 167 151 144 135 129 125 120 116 113 111 109 107 103 97 92 86 80 74 62 48 28 355 340 339 335 322 302 283 268 261 263 266 263 264 262 264 262 262
Wind_Speed_850mb
40 24 11 1 4 6 5 8 3 5 5 7 26 11 15 8 8 4 14 47 52 51 49 48 45 41 35 30 31 37 32 33 33 25 31 32 29 26 24 20 14 14 26 24 20 20 21 19 19
40 21 5 2 6 2 6 5 8 7 7 22 20 12 7 5 7 4 35 44 56 51 50 49 48 41 37 32 32 34 33 34 34 29 22 22 21 19 17 17 14 18 23 22 18 20 18 19 20
37 21 6 7 4 6 7 7 7 4 27 14 11 5 7 4 10 18 33 50 56 52 50 51 48 42 38 34 33 35 30 29 30 27 21 16 20 18 22 21 21 21 20 19 17 17 15 16 18
23 6 4 6 8 9 9 4 7 14 11 9 11 7 7 7 8 25 48 53 53 51 50 50 46 42 38 32 32 34 29 26 26 23 21 19 20 22 19 18 21 21 18 16 14 13 12 13 13
21 2 2 3 7 9 8 7 19 9 9 11 14 7 5 11 14 27 51 56 53 52 50 50 46 43 37 32 30 30 26 23 23 23 24 24 24 23 23 17 15 17 15 13 12 11 9 8 8
11 4 2 6 8 8 10 11 18 15 10 13 11 15 8 15 22 36 50 55 50 49 49 49 45 43 38 34 31 28 23 24 20 20 19 19 20 20 16 10 8 9 13 11 9 8 6 4 3
2 4 8 7 7 9 7 10 12 17 14 11 9 11 8 25 28 37 49 52 51 47 47 48 46 43 40 35 32 27 23 22 21 18 18 17 17 17 15 13 10 7 7 11 8 5 3 1 0
3 4 5 8 8 11 7 15 7 22 13 11 16 7 8 35 36 43 48 52 51 48 47 47 48 43 43 38 33 29 23 21 21 20 16 16 15 14 14 12 9 8 6 5 5 6 5 5 6
11 2 7 9 12 10 10 8 9 10 12 19 23 9 7 33 40 48 53 55 57 52 49 47 47 45 43 40 37 30 24 21 25 27 25 18 15 13 12 12 11 9 8 6 7 8 9 10 12
13 9 15 10 9 6 5 12 11 11 14 14 22 23 14 34 46 55 64 65 64 60 53 48 48 46 44 42 39 33 27 22 20 19 21 19 16 12 10 9 9 8 6 4 5 7 9 11 14
11 13 9 10 15 10 5 7 12 14 8 25 40 38 30 40 50 55 63 64 67 61 55 52 47 44 43 41 39 34 29 26 22 17 15 17 15 12 9 8 6 7 6 5 6 9 10 11 12
9 21 17 9 6 5 5 6 6 23 15 5 30 30 37 44 53 57 62 64 63 63 59 52 48 44 42 39 36 32 29 26 24 20 18 18 17 14 11 10 11 10 11 11 12 12 11 12 14
10 9 22 37 37 23 12 11 7 22 27 23 16 31 40 43 50 53 55 58 61 62 61 56 49 46 43 40 37 35 32 28 24 24 22 21 19 17 16 15 15 15 16 15 16 16 16 17 18
6 17 33 26 28 15 13 9 10 15 14 29 21 32 41 43 47 50 57 61 65 60 57 53 51 49 47 44 40 37 33 30 29 29 26 25 23 22 21 20 20 21 19 19 20 20 20 21 23
14 15 13 16 21 12 19 13 16 44 31 21 28 31 39 43 45 48 49 55 60 60 53 52 49 49 51 48 43 40 37 35 35 32 31 30 28 26 26 26 25 23 24 26 27 26 27 26 27
8 10 13 3 23 13 26 22 10 40 34 38 30 32 38 44 46 43 44 49 51 53 52 48 46 45 45 46 46 44 41 40 38 35 34 34 32 32 32 32 29 26 29 30 31 30 31 31 31
8 9 14 7 24 7 14 8 16 25 22 37 37 36 39 42 45 48 45 45 48 50 49 48 47 45 42 40 40 38 42 43 40 38 37 35 34 33 36 35 30 30 34 34 33 33 35 35 35
9 7 4 12 9 8 9 13 7 8 22 34 34 38 41 45 50 47 48 47 45 47 49 48 47 44 42 40 39 38 37 40 44 44 43 40 40 38 38 38 37 36 39 40 40 40 40 41 40
8 6 18 6 10 9 15 13 24 10 10 11 25 31 39 47 44 42 43 46 47 49 51 53 53 50 49 49 47 46 47 41 40 41 44 43 41 42 44 44 42 43 47 43 40 41 43 44 42
8 2 11 7 3 9 3 13 15 11 16 33 25 24 35 35 38 35 38 45 47 46 49 51 54 54 53 51 46 44 41 41 41 38 34 31 30 30 34 36 40 42 42 44 45 46 52 55 48
11 8 7 7 2 1 2 10 8 10 18 35 38 30 23 31 31 29 33 39 41 43 44 43 43 47 49 49 48 47 47 45 42 37 30 28 28 29 34 35 36 37 40 43 42 42 40 42 42
10 17 8 3 3 7 1 9 9 10 15 13 39 42 33 24 26 25 27 32 37 44 42 40 39 37 38 44 49 47 44 43 34 32 32 31 30 30 31 33 36 35 37 40 40 35 34 34 40
11 15 18 5 5 1 2 2 12 2 9 13 23 32 39 31 24 26 27 21 20 30 36 37 43 42 40 41 43 43 45 41 42 42 43 41 40 39 38 38 37 37 39 39 40 38 35 35 35
14 10 12 7 6 5 7 8 9 7 7 2 5 5 20 29 32 30 26 26 24 24 26 29 34 38 40 42 43 47 48 48 50 51 52 51 51 49 49 48 45 41 40 36 36 35 37 32 34
3 13 4 5 7 10 6 7 10 10 5 1 3 6 8 19 23 30 31 27 25 24 23 23 23 24 26 28 32 36 38 41 45 45 44 43 43 43 42 43 43 40 35 33 30 30 33 33 34
12 12 9 12 8 5 3 10 10 3 8 3 17 16 20 23 25 28 29 27 24 20 19 17 17 16 16 17 19 22 24 26 28 30 32 32 32 32 33 35 37 37 34 32 31 35 36 32 34
9 8 7 12 5 6 6 11 17 5 6 7 20 21 25 28 30 33 33 31 30 29 25 21 19 18 15 13 11 9 6 3 6 10 12 14 16 19 22 25 27 28 28 30 33 35 33 34 37
9 13 5 5 7 4 7 8 9 2 5 7 9 24 29 34 39 42 42 42 42 37 38 38 33 29 26 23 20 17 13 9 7 6 8 9 10 12 14 18 20 22 28 31 33 37 37 36 36
3 2 7 8 6 8 5 10 8 3 7 13 13 24 36 42 44 45 44 43 41 39 37 37 34 29 24 21 16 13 10 7 7 8 8 8 9 10 12 16 19 20 23 28 31 32 29 27 27
2 8 8 8 8 1 4 9 2 9 8 22 23 30 38 40 41 41 40 41 39 38 36 33 30 25 23 19 15 11 9 8 8 10 11 10 9 10 12 13 16 19 23 24 24 24 25 25 24
Wind_Direction_850mb
342 339 332 252 48 62 266 259 262 175 169 167 142 155 184 165 173 198 166 168 169 166 164 163 161 160 155 151 143 144 137 136 138 129 133 131 133 137 136 137 135 131 114 117 116 106 106 97 89
339 333 316 107 95 78 264 264 225 214 154 140 139 135 153 183 189 177 155 164 167 167 165 164 162 162 160 156 149 150 149 150 144 142 147 149 151 140 143 137 135 116 118 120 116 105 100 93 82
333 324 276 96 112 197 221 220 226 156 146 143 130 172 165 194 191 162 163 162 166 168 166 165 164 165 164 161 158 154 159 161 168 170 172 166 140 131 133 128 121 109 106 105 105 99 88 78 78
331 307 38 109 231 248 212 252 208 140 195 163 152 138 158 165 165 165 162 166 166 169 168 168 168 168 168 167 165 166 170 169 170 170 171 160 135 123 123 120 116 108 106 103 100 98 95 91 77
319 295 51 136 240 262 250 236 179 181 169 174 170 184 176 182 174 169 166 167 169 169 170 172 170 170 172 170 169 167 168 164 171 173 170 151 144 144 140 134 114 108 111 111 104 94 84 81 79
309 79 75 221 242 252 270 241 176 182 171 163 165 155 172 174 174 170 172 172 171 172 173 176 172 174 174 173 172 170 169 172 172 163 161 153 147 157 162 162 129 115 134 125 115 106 99 90 51
329 90 231 209 246 299 240 160 181 168 162 206 173 147 188 177 169 174 176 177 175 176 176 180 177 178 179 177 178 178 174 172 183 173 170 164 168 165 165 167 164 162 135 136 140 142 146 132 314
274 107 221 231 201 253 184 176 201 178 196 167 179 190 208 188 172 174 177 179 179 181 183 183 185 180 183 182 186 189 185 186 188 190 184 182 180 183 185 187 182 179 179 175 177 196 217 249 273
174 100 241 228 165 241 170 186 196 194 168 180 188 192 200 184 176 174 178 181 185 187 188 188 190 189 187 186 192 196 195 197 206 194 189 185 182 188 195 197 203 205 208 221 231 236 243 254 268
186 160 223 226 199 262 214 180 181 174 172 193 195 204 200 183 185 182 186 186 188 190 190 192 192 194 193 193 198 202 202 204 211 201 184 174 178 183 184 191 200 210 207 212 244 256 261 266 269
210 190 209 274 249 250 258 255 184 169 221 210 208 201 196 185 191 192 193 194 191 193 194 194 194 196 199 201 202 207 209 211 213 212 193 188 197 206 204 202 210 206 216 257 281 286 279 285 290
212 235 196 221 264 232 214 281 216 206 213 237 228 221 203 195 198 199 197 199 198 199 200 198 198 199 202 205 210 214 218 219 219 220 214 216 218 223 229 230 236 244 256 270 280 285 291 291 294
210 226 239 244 247 248 254 245 269 261 248 256 221 210 211 206 204 203 203 204 205 205 202 202 203 204 206 208 212 217 220 224 227 228 228 228 232 236 240 242 247 254 264 274 283 286 287 291 294
281 227 251 253 238 223 204 245 184 261 260 234 224 210 212 212 209 202 205 207 207 205 205 205 208 212 213 215 218 221 225 227 231 233 235 237 239 241 246 250 255 257 267 270 274 278 281 284 288
279 281 292 234 223 233 203 269 218 248 257 245 231 215 215 214 212 215 213 207 206 207 207 209 212 216 220 221 223 226 229 232 236 239 241 243 244 249 254 256 256 260 263 266 271 276 281 283 287
198 165 234 200 167 228 171 252 236 239 234 237 235 226 218 218 219 219 217 214 208 209 211 210 212 214 217 220 225 229 231 236 239 242 243 245 248 251 255 258 259 263 263 266 272 278 282 285 288
249 194 226 319 189 137 189 243 230 243 217 236 236 234 230 225 223 223 221 219 216 214 214 215 217 218 218 220 225 231 232 236 238 239 241 243 249 253 256 258 261 261 264 268 274 278 285 287 289
206 196 242 206 189 174 196 245 225 180 209 231 238 235 234 234 232 228 225 223 223 222 224 224 225 226 225 227 229 231 231 234 238 240 242 243 248 252 257 259 261 262 264 266 270 276 279 283 285
53 342 231 235 212 173 220 214 233 235 267 230 235 238 239 241 242 237 231 229 227 225 225 227 227 228 228 229 230 234 236 241 245 247 250 252 255 256 257 260 261 263 265 269 272 276 280 283 287
291 305 304 285 352 169 214 250 249 228 239 237 231 234 241 243 245 239 236 228 231 233 232 229 230 231 232 234 239 243 249 252 254 253 253 254 256 259 267 270 267 267 268 271 271 274 280 280 278
218 193 241 279 339 0 10 289 230 238 234 244 238 235 237 240 241 234 227 226 231 234 233 233 234 235 234 236 240 242 248 250 251 252 252 258 263 263 267 272 273 272 272 275 275 273 275 279 280
210 186 208 223 163 220 60 273 260 233 241 231 237 226 224 226 223 214 212 220 229 225 225 228 230 232 234 236 238 241 246 252 256 260 259 257 259 263 265 268 269 270 269 270 275 277 274 276 276
211 179 183 152 138 13 267 60 268 318 252 247 238 230 224 219 211 198 201 201 204 213 221 225 226 224 226 229 236 241 246 251 257 259 260 261 262 264 266 267 269 270 270 272 274 275 277 279 276
147 80 47 67 43 307 204 154 276 212 228 39 53 195 227 220 209 197 193 195 191 188 197 210 218 225 231 233 238 242 246 251 255 258 260 263 264 265 264 266 267 267 266 271 276 276 272 277 276
183 119 115 156 201 227 310 188 253 243 244 88 68 84 143 175 182 187 191 188 191 192 194 199 205 210 217 224 231 239 246 250 255 260 263 264 265 265 266 266 265 262 261 264 269 264 275 272 274
187 170 147 171 188 201 331 233 238 177 311 193 110 118 123 131 142 147 152 160 166 172 179 188 196 207 218 231 238 241 248 254 261 265 268 270 268 264 260 257 256 254 252 263 266 261 261 269 270
197 197 152 105 27 76 225 296 298 152 48 115 122 123 117 121 126 129 129 130 128 131 130 128 129 128 126 126 125 128 137 218 253 266 275 276 272 265 258 259 255 250 256 265 269 266 265 271 272
179 155 91 2 117 227 275 283 242 307 129 117 132 129 125 124 123 121 121 119 118 116 114 116 112 107 105 100 95 87 78 65 35 358 339 317 291 275 264 255 251 252 256 262 266 262 266 268 270
109 170 49 115 122 164 150 257 214 297 178 168 154 142 134 128 122 118 116 115 114 113 110 105 102 99 95 94 92 89 87 71 32 1 342 325 302 285 263 252 248 259 262 261 261 262 261 267 263
280 199 153 145 224 137 133 271 20 260 228 167 151 144 135 129 125 120 116 113 111 109 107 103 97 92 86 80 74 62 48 28 355 340 339 335 322 302 283 268 261 263 266 263 264 262 264 262 262